Home   Weather   Thusis   Past weeks

Flag for Switzerland Past Weather in Thusis, Graubünden, Switzerland — Yesterday and Last 2 Weeks

Now
40 °F

Chilly.


Feels Like: 40 °F
Forecast: 36 / 53 °F
Wind: 1 mph from Southwest

Location: Chur

Current Time: Apr 24, 2017 at 2:04:27 am

Latest Report: Apr 24, 2017 at 1:00 am


Visibility: N/A

Pressure: 30.23 "Hg (27.67 "Hg at 718m altitude)

Humidity: 77%

Dew Point: 33 °F

Location of ThusisLocation

Past Weather in Thusis — Graph

°F

Thusis Temperature Yesterday

Maximum temperature yesterday: 58 °F (at 5:00 pm)
Minimum temperature yesterday: 40 °F (at 5:00 am)
Average temperature yesterday: 48 °F

High & Low Weather Summary for the Past Weeks

 TemperatureHumidityPressure
High74 °F (Apr 10, 4:00 pm)94% (Apr 18, 8:00 am)30.61 "Hg (Apr 18, 8:00 am)
Low29 °F (Apr 20, 6:00 am)18% (Apr 21, 4:00 pm)29.87 "Hg (Apr 13, 5:00 pm)
Average48 °F64%30.19 "Hg
* Reported Apr 9 12:00 am — Apr 24 12:00 am, Thusis, Weather by CustomWeather, © 2017

Note: Actual official high and low records may vary slightly from our data, if they occured in-between our weather recording intervals... More about our weather records

Advertising

Thusis Weather History for the Previous 24 Hours

Scroll right to see more
 ConditionsComfort  
Time TempWeatherWind HumidityBarometerVisibility
12:00 am
Mon, Apr 24
39 °FChilly.No wind81%30.24 "HgN/A
11:00 pm
Sun, Apr 23
44 °FClear.1 mph63%30.21 "Hg6 mi
10:00 pm47 °FCool.3 mph54%30.19 "HgN/A
9:00 pm48 °FCool.8 mph56%30.16 "HgN/A
8:00 pm49 °FPassing clouds.9 mph55%30.14 "Hg12 mi
7:00 pm52 °FCool.12 mph50%30.11 "HgN/A
6:00 pm56 °FRefreshingly cool.16 mph44%30.09 "HgN/A
5:00 pm58 °FPassing clouds.16 mph41%30.09 "Hg12 mi
4:00 pm57 °FRefreshingly cool.17 mph42%30.10 "HgN/A
3:00 pm56 °FRefreshingly cool.15 mph45%30.12 "HgN/A
2:00 pm56 °FPassing clouds.13 mph45%30.14 "Hg12 mi
1:00 pm53 °FCool.14 mph49%30.17 "HgN/A
12:00 pm51 °FCool.13 mph52%30.19 "HgN/A
11:00 am48 °FScattered clouds.10 mph56%30.22 "Hg9 mi
10:00 am44 °FQuite cool.8 mph63%30.25 "HgN/A
9:00 am42 °FQuite cool.3 mph66%30.25 "HgN/A
8:00 am42 °FOvercast.10 mph67%30.24 "Hg9 mi
7:00 am41 °FQuite cool.10 mph72%30.23 "HgN/A
6:00 am40 °FChilly.9 mph84%30.23 "HgN/A
5:00 am40 °FRain. Overcast.10 mph84%30.23 "Hg3 mi
4:00 am41 °FQuite cool.12 mph85%30.22 "HgN/A
3:00 am44 °FQuite cool.14 mph83%30.20 "HgN/A
2:00 am46 °FOvercast.6 mph81%30.19 "Hg3 mi
Weather by CustomWeather, © 2017

See weather overviewHow to use our weather pages